Marshfield, WI

4:37 PM CDT on October 21, 2017 (GMT -0500)
Marshfield Municipal

Weather History for KMFI - October, 2013

Change the Weather History Date:

Wednesday, October 23, 2013

  Actual Average Record
Temperature  
Mean Temperature 32 °F -  
Max Temperature 39 °F 56 °F 79 °F (1963)
Min Temperature 26 °F 35 °F 13 °F (1969)
Degree Days  
Heating Degree Days 34    
Moisture  
Dew Point 26 °F    
Average Humidity 77    
Maximum Humidity 87    
Minimum Humidity 62    
Precipitation  
Precipitation 0.00 in - - ()
Sea Level Pressure  
Sea Level Pressure 29.98 in    
Wind  
Wind Speed 7 mph (WNW)    
Max Wind Speed 16 mph    
Max Gust Speed 23 mph    
Visibility 8 miles    
Events Snow    
Averages and records for this station are not official NWS values.
T = Trace of Precipitation, MM = Missing Value Source: NWS Daily Summary

Daily Weather History Graph

Daily Weather History Graph

Search for Another Location

Airport or City:

Trip Planner

Search our weather history database for the weather conditions in past years. The results will help you decide how hot, cold, wet, or windy it might be!

Date:

Astronomy

Oct. 23, 2013 Rise Set
Actual Time 7:26 AM CDT 6:02 PM CDT
Civil Twilight 6:56 AM CDT 6:32 PM CDT
Nautical Twilight 6:22 AM CDT 7:06 PM CDT
Astronomical Twilight 5:49 AM CDT 7:40 PM CDT
Moon 9:27 PM CDT (10/23) 11:50 AM CDT (10/23)
Length of Visible Light 11h 35m
Length of Day
10h 35m
Waning Gibbous, 79% of the Moon is Illuminated
Oct 23
Waning Gibbous
Oct 26
Last Quarter
Nov 3
New
Nov 9
First Quarter
Nov 17
Full

Hourly Weather History & Observations

Time (CDT) Temp. Windchill Dew Point Humidity Pressure Visibility Wind Dir Wind Speed Gust Speed Precip Events Conditions
12:54 AM 32.0 °F 26.4 °F 23.0 °F 69% 29.99 in 10.0 mi NNW 5.8 mph - N/A   Mostly Cloudy
1:54 AM 32.0 °F 26.4 °F 21.0 °F 64% 29.98 in 10.0 mi WNW 5.8 mph - N/A   Overcast
2:54 AM 28.0 °F 22.8 °F 21.0 °F 75% 29.98 in 10.0 mi WNW 4.6 mph - N/A   Clear
3:54 AM 27.0 °F 19.5 °F 21.9 °F 81% 29.98 in 10.0 mi WNW 6.9 mph - N/A   Clear
4:54 AM 26.1 °F 18.4 °F 21.9 °F 84% 29.98 in 10.0 mi WNW 6.9 mph - N/A   Clear
5:54 AM 26.1 °F 19.4 °F 21.0 °F 81% 29.98 in 10.0 mi WNW 5.8 mph - N/A   Clear
6:54 AM 26.1 °F 19.4 °F 21.0 °F 81% 29.99 in 10.0 mi WNW 5.8 mph - N/A   Clear
7:54 AM 27.0 °F 20.5 °F 21.9 °F 81% 29.99 in 10.0 mi WNW 5.8 mph - N/A   Scattered Clouds
8:54 AM 30.0 °F 23.2 °F 25.0 °F 82% 30.00 in 10.0 mi WNW 6.9 mph - N/A   Overcast
9:54 AM 32.0 °F 25.6 °F 26.1 °F 79% 30.00 in 10.0 mi WNW 6.9 mph - N/A   Overcast
10:54 AM 35.1 °F 27.4 °F 28.0 °F 76% 30.00 in 10.0 mi WNW 10.4 mph - N/A   Overcast
11:21 AM 33.8 °F 25.8 °F 28.4 °F 81% 29.96 in 2.5 mi West 10.4 mph - 0.00 in Snow Light Snow
11:31 AM 35.6 °F 28.0 °F 28.4 °F 75% 29.96 in 7.0 mi WNW 10.4 mph - 0.00 in Snow Light Snow
11:54 AM 34.0 °F 26.0 °F 28.9 °F 82% 30.00 in 3.0 mi WNW 10.4 mph - 0.00 in Snow Light Snow
12:13 PM 33.8 °F 28.6 °F 28.4 °F 81% 29.96 in 1.5 mi West 5.8 mph - 0.00 in Snow Light Snow
12:15 PM 33.8 °F 27.7 °F 28.4 °F 81% 29.96 in 1.0 mi West 6.9 mph - 0.00 in Snow Light Snow
12:25 PM 33.8 °F 28.6 °F 30.2 °F 87% 29.95 in 1.5 mi West 5.8 mph - 0.00 in Snow Light Snow
12:29 PM 33.8 °F 27.0 °F 30.2 °F 87% 29.95 in 3.0 mi WNW 8.1 mph - 0.00 in Snow Light Snow
12:32 PM 33.8 °F 27.0 °F 30.2 °F 87% 29.95 in 5.0 mi West 8.1 mph - 0.00 in Snow Light Snow
12:54 PM 36.0 °F 29.0 °F 30.9 °F 82% 29.99 in 10.0 mi WNW 9.2 mph - 0.00 in   Overcast
1:23 PM 37.4 °F 30.3 °F 30.2 °F 75% 29.95 in 10.0 mi NW 10.4 mph - N/A   Overcast
1:54 PM 37.0 °F 29.3 °F 27.0 °F 67% 29.98 in 10.0 mi NW 11.5 mph - N/A   Overcast
2:04 PM 37.4 °F 30.8 °F 26.6 °F 65% 29.94 in 10.0 mi NW 9.2 mph - N/A   Overcast
2:54 PM 37.9 °F 32.7 °F 26.1 °F 62% 29.98 in 10.0 mi WNW 6.9 mph - N/A   Overcast
3:54 PM 36.0 °F 26.3 °F 27.0 °F 70% 29.99 in 1.8 mi NW 16.1 mph 23.0 mph 0.00 in Snow Light Snow
3:59 PM 33.8 °F 25.8 °F 28.4 °F 81% 29.95 in 0.8 mi NW 10.4 mph 23.0 mph 0.00 in Snow Light Snow
4:09 PM 33.8 °F 27.7 °F 28.4 °F 81% 29.95 in 1.2 mi WNW 6.9 mph - 0.00 in Snow Light Snow
4:14 PM 35.6 °F 30.7 °F 28.4 °F 75% 29.95 in 2.5 mi WNW 5.8 mph - 0.00 in Snow Light Snow
4:21 PM 35.6 °F 27.5 °F 28.4 °F 75% 29.95 in 9.0 mi WNW 11.5 mph - 0.00 in Snow Light Snow
4:54 PM 35.1 °F 30.1 °F 28.9 °F 78% 30.00 in 10.0 mi West 5.8 mph - 0.00 in   Overcast
5:54 PM 35.1 °F 29.3 °F 28.0 °F 76% 30.01 in 10.0 mi NW 6.9 mph - N/A   Overcast
6:54 PM 34.0 °F 27.2 °F 26.1 °F 73% 30.02 in 10.0 mi WNW 8.1 mph - N/A   Overcast
7:54 PM 34.0 °F 28.8 °F 27.0 °F 75% 30.03 in 10.0 mi WNW 5.8 mph - N/A   Overcast
8:54 PM 30.9 °F 25.2 °F 25.0 °F 79% 30.03 in 10.0 mi WNW 5.8 mph - N/A   Mostly Cloudy
9:54 PM 30.9 °F 23.5 °F 25.0 °F 79% 30.04 in 10.0 mi WNW 8.1 mph - N/A   Overcast
10:54 PM 32.0 °F 25.6 °F 25.0 °F 75% 30.04 in 10.0 mi WNW 6.9 mph - N/A   Overcast
11:54 PM 32.0 °F 24.2 °F 24.1 °F 73% 30.04 in 10.0 mi NW 9.2 mph - N/A   Overcast